TimeEST,TemperatureF,Dew PointF,Humidity,Sea Level PressureIn,VisibilityMPH,Wind Direction,Wind SpeedMPH,Gust SpeedMPH,PrecipitationIn,Events,Conditions,WindDirDegrees,DateUTC
12:13 AM,39.2,35.6,87,29.60,10.0,SSW,10.4,-,N/A,,Overcast,210,2013-02-27 05:13:00
12:55 AM,38.7,36.3,91,29.60,10.0,SSW,11.5,-,0.00,,Overcast,210,2013-02-27 05:55:00
1:55 AM,39.0,36.1,89,29.62,10.0,SW,11.5,-,N/A,,Overcast,230,2013-02-27 06:55:00
2:17 AM,39.2,35.6,87,29.62,10.0,SW,13.8,-,N/A,,Overcast,230,2013-02-27 07:17:00
2:38 AM,39.2,35.6,87,29.63,10.0,SW,13.8,-,N/A,,Overcast,230,2013-02-27 07:38:00
2:55 AM,38.7,35.4,88,29.63,10.0,SW,13.8,-,0.00,,Overcast,230,2013-02-27 07:55:00
3:05 AM,39.2,35.6,87,29.63,10.0,SW,16.1,25.3,N/A,,Overcast,230,2013-02-27 08:05:00
3:10 AM,39.2,35.6,87,29.64,10.0,SW,17.3,25.3,N/A,,Overcast,230,2013-02-27 08:10:00
3:55 AM,38.3,35.1,88,29.65,10.0,SW,15.0,23.0,N/A,,Overcast,230,2013-02-27 08:55:00
4:55 AM,38.1,34.9,88,29.66,10.0,SW,17.3,23.0,N/A,,Overcast,230,2013-02-27 09:55:00
5:55 AM,37.6,34.5,89,29.68,10.0,SW,17.3,21.9,N/A,,Overcast,220,2013-02-27 10:55:00
6:45 AM,37.4,33.8,87,29.70,9.0,WSW,13.8,26.5,N/A,,Overcast,240,2013-02-27 11:45:00
6:55 AM,37.0,33.8,88,29.70,7.0,WSW,15.0,-,0.00,,Overcast,240,2013-02-27 11:55:00
7:52 AM,37.4,33.8,87,29.70,2.5,SW,11.5,-,N/A,,Light Drizzle,230,2013-02-27 12:52:00
7:55 AM,36.5,34.3,92,29.73,3.0,SW,10.4,-,0.00,,Light Drizzle,230,2013-02-27 12:55:00
8:10 AM,35.6,33.8,93,29.71,6.0,SW,13.8,-,N/A,,Light Drizzle,220,2013-02-27 13:10:00
8:55 AM,36.3,34.5,93,29.75,5.0,SW,10.4,-,0.00,,Light Drizzle,220,2013-02-27 13:55:00
9:55 AM,35.1,33.4,94,29.76,10.0,WSW,10.4,-,0.01,,Overcast,240,2013-02-27 14:55:00
9:58 AM,35.6,32.0,87,29.82,4.0,WSW,10.4,-,N/A,Snow,Light Drizzle,250,2013-02-27 14:58:00
10:03 AM,35.1,33.4,94,29.82,4.0,WSW,10.4,-,0.01,Snow,Light Drizzle,240,2013-02-27 15:03:00
10:23 AM,35.6,32.0,87,29.74,2.2,WSW,10.4,18.4,N/A,,Light Drizzle,250,2013-02-27 15:23:00
10:55 AM,35.1,33.4,94,29.76,4.0,WSW,10.4,-,0.01,,Light Drizzle,240,2013-02-27 15:55:00
11:32 AM,35.6,32.0,87,29.74,3.0,WSW,11.5,19.6,N/A,,Light Drizzle,240,2013-02-27 16:32:00
11:55 AM,35.8,33.8,92,29.77,6.0,SW,13.8,21.9,0.00,,Light Drizzle,230,2013-02-27 16:55:00
12:06 PM,35.6,32.0,87,29.75,7.0,WSW,13.8,27.6,N/A,Snow,Light Snow Grains,250,2013-02-27 17:06:00
12:55 PM,35.6,32.0,87,29.76,7.0,SW,15.0,-,0.00,Snow,Light Snow Grains,230,2013-02-27 17:55:00
1:50 PM,37.4,32.0,81,29.73,10.0,SW,15.0,23.0,N/A,,Overcast,230,2013-02-27 18:50:00
1:55 PM,37.2,32.2,82,29.75,10.0,SW,13.8,-,N/A,,Overcast,220,2013-02-27 18:55:00
2:55 PM,36.9,31.5,81,29.75,10.0,SW,10.4,19.6,0.00,,Overcast,220,2013-02-27 19:55:00
3:18 PM,37.4,32.0,81,29.74,10.0,SW,13.8,-,N/A,,Light Ice Pellets,230,2013-02-27 20:18:00
3:55 PM,36.9,31.1,80,29.76,5.0,SW,12.7,-,0.00,Snow,Light Snow,230,2013-02-27 20:55:00
4:04 PM,37.4,32.0,81,29.74,10.0,SW,15.0,20.7,N/A,,Overcast,220,2013-02-27 21:04:00
4:20 PM,37.4,32.0,81,29.74,4.0,SW,16.1,21.9,N/A,Snow,Light Snow,220,2013-02-27 21:20:00
4:55 PM,36.5,30.7,80,29.78,10.0,SW,12.7,-,0.00,,Overcast,230,2013-02-27 21:55:00
5:55 PM,36.0,31.3,83,29.78,4.0,SW,11.5,-,0.00,Snow,Light Snow,230,2013-02-27 22:55:00
6:55 PM,34.2,31.8,91,29.80,4.0,SSW,9.2,-,0.00,Snow,Light Snow,210,2013-02-27 23:55:00
7:55 PM,34.2,31.8,91,29.81,5.0,SW,8.1,-,0.00,Snow,Light Snow,230,2013-02-28 00:55:00
8:55 PM,33.6,32.2,94,29.81,2.0,SW,11.5,-,0.00,Snow,Snow,230,2013-02-28 01:55:00
9:18 PM,32.0,32.0,100,29.79,5.0,West,9.2,-,N/A,Snow,Light Snow,260,2013-02-28 02:18:00
9:55 PM,32.9,31.1,93,29.82,7.0,WSW,8.1,-,0.01,Snow,Light Snow,250,2013-02-28 02:55:00
10:43 PM,32.0,30.2,93,29.79,10.0,WSW,12.7,20.7,N/A,,Overcast,250,2013-02-28 03:43:00
10:55 PM,32.7,29.5,88,29.82,10.0,WSW,10.4,-,N/A,,Overcast,250,2013-02-28 03:55:00
11:19 PM,33.8,30.2,87,29.82,10.0,WSW,9.2,-,N/A,,Overcast,240,2013-02-28 04:19:00
11:22 PM,33.8,30.2,87,29.82,10.0,WSW,9.2,-,N/A,,Overcast,240,2013-02-28 04:22:00
11:55 PM,32.9,29.8,88,29.81,10.0,WSW,9.2,-,0.00,,Overcast,240,2013-02-28 04:55:00